Regional Weather Roundup
Issued by NWS

Home | Current Version | Previous Version | Graphics & Text | Print | Product List | Glossary On
Versions: 1 2 3 4 5 6 7 8 9 10 11 12 13 14 15 16 17 18 19 20 21 22 23 24 25 26 27 28 29 30 31 32 33 34 35 36 37 38 39 40 41 42 43 44 45 46 47 48 49 50
000
ASUS45 KPSR 202110
RWRAZ

ARIZONA REGIONAL HOURLY WEATHER ROUNDUP
NATIONAL WEATHER SERVICE PHOENIX AZ
200 PM MST SAT SEP 20 2014

NOTE: FAIR INDICATES FEW OR NO CLOUDS BELOW 12,000 FEET WITH NO
SIGNIFICANT WEATHER AND/OR OBSTRUCTIONS TO VISIBILITY.

AZZ001>003-036-202200-
NORTHWEST ARIZONA

CITY           SKY/WX    TMP DP  RH WIND       PRES   REMARKS
BULLHEAD CITY  SUNNY    100  50  18 SW7G16    29.79F
KINGMAN        PTSUNNY   90  47  22 S9        29.98F
$$

AZZ004>008-015-016-018-202200-
NORTH CENTRAL ARIZONA

CITY           SKY/WX    TMP DP  RH WIND       PRES   REMARKS
GRAND CANYON   CLOUDY    75  48  38 NE8       30.20F
PRESCOTT       MOSUNNY   82  48  30 VRB3      30.09F
FLAGSTAFF      MOSUNNY   78  45  30 E7        30.22F
PAYSON         MOSUNNY   82  59  44 SW10      30.11F
PAGE           SUNNY     92  44  19 N6        30.01F
$$

AZZ009>014-017-202200-
NORTHEAST ARIZONA

CITY           SKY/WX    TMP DP  RH WIND       PRES   REMARKS
WINSLOW        SUNNY     90  47  22 E6        30.05F
SAINT JOHNS    MOSUNNY   86  43  22 E7        30.08F
SHOW LOW       PTSUNNY   70  55  60 S12       30.18F
$$

AZZ023-202200-
GREATER PHOENIX AREA

CITY           SKY/WX    TMP DP  RH WIND       PRES   REMARKS
PHOENIX        MOSUNNY   97  63  32 SW7       29.81F
BUCKEYE          N/A     95  59  30 SW6       29.82F
GLENDALE       PTSUNNY   97  61  30 SE6       29.83F
LUKE AFB       SUNNY     96  62  32 VRB2      29.81F
DEER VALLEY    SUNNY     94  57  28 W8        29.84F
SCOTTSDALE     SUNNY     95  56  26 W8        29.85F
MESA-FALCON    MOSUNNY   93  63  36 W6        29.84F
MESA-GATEWAY   MOSUNNY   97  61  30 SW9       29.86F
CHANDLER       PTSUNNY   95  63  34 SW8       29.84F
$$

AZZ027-028-202200-
SOUTHWEST MARICOPA COUNTY AND PINAL COUNTY

CITY           SKY/WX    TMP DP  RH WIND       PRES   REMARKS
CASA GRANDE    SUNNY     95  63  34 SW6       29.85F
$$

AZZ503-504-507>509-202200-
SOUTHEAST ARIZONA

CITY           SKY/WX    TMP DP  RH WIND       PRES   REMARKS
TUCSON         PTSUNNY   87  65  47 S7        29.96F
DAVIS-MONTHAN  PTSUNNY   86  66  52 E2        29.95F
RYAN FIELD       N/A     90  64  43 SE5       29.95F
NOGALES        MOSUNNY   83  61  47 CALM      30.04F
SIERRA VISTA   MOSUNNY   79  62  56 CALM      30.09F
DOUGLAS        PTSUNNY   83  61  47 S5        30.04F
SAFFORD        MOSUNNY   90  60  36 VRB7      29.93F
$$

AZZ020-021-025-026-031-202200-
SOUTHWEST ARIZONA

CITY           SKY/WX    TMP DP  RH WIND       PRES   REMARKS
YUMA           MOSUNNY  100  58  24 S9        29.76F
$$

CAZ031-033-041-043-047-048-061-202200-
SOUTHERN CALIFORNIA

CITY           SKY/WX    TMP DP  RH WIND       PRES   REMARKS
DOWNTOWN L.A.  CLOUDY    76  62  62 CALM      29.91F
L.A. AIRPORT   MOSUNNY   73  60  63 W6        29.92F
SAN DIEGO      MOSUNNY   76  59  55 W8        29.92F
BURBANK        PTSUNNY   74  59  59 CALM      29.92F
ONTARIO        MOSUNNY   80  60  50 W12G17    29.91F
RIVERSIDE      SUNNY     81  61  50 W10       29.90F
PALM SPRINGS   MOSUNNY   98  59  27 MISG      29.79F
EL CENTRO NAS  MOSUNNY   97  61  30 SE6       29.74F
IMPERIAL       SUNNY     97  64  33 NE6       29.74F
BLYTHE         MOSUNNY   99  57  24 SW12      29.77F
NEEDLES        PTSUNNY  100  49  17 W6G18     29.79F
$$

NVZ020-UTZ003-202200-
SOUTHERN NEVADA-UTAH

CITY           SKY/WX    TMP DP  RH WIND       PRES   REMARKS
LAS VEGAS      PTSUNNY   93  43  17 S5        29.84F
SALT LAKE CITY MOSUNNY   83  43  24 NW12      30.11F
$$

NMZ009-TXZ055-202200-
NEW MEXICO-WEST TEXAS

CITY           SKY/WX    TMP DP  RH WIND       PRES   REMARKS
ALBUQUERQUE    MOSUNNY   85  55  35 W10       30.10F
EL PASO        MOSUNNY   87  60  40 NE7       30.01F
$$


........................KEY........................
SKY/WX - SKY CONDITION/WEATHER
TMP    - TEMPERATURE IN FAHRENHEIT
DP     - DEW POINT IN FAHRENHEIT
RH     - RELATIVE HUMIDITY IN PERCENT
WIND   - DIRECTION AND SPEED IN MILES PER HOUR (MPH)
VRB    - VARIABLE WIND DIRECTION
PRES   - MEAN SEA LEVEL PRESSURE IN INCHES OF MERCURY
         F - FALLING PRESSURE   R - RISING PRESSURE
         S - STEADY PRESSURE
VSB    - VISIBILITY IN MILES
HX     - HEAT INDEX IN FAHRENHEIT
WCI    - WIND CHILL INDEX IN FAHRENHEIT
TC     - TEMPERATURE IN CELSIUS WHICH IS ALSO KNOWN AS
         TEMPERATURE IN CENTIGRADE
AFB    - AIR FORCE BASE
         LUKE AFB IS LUKE AIR FORCE BASE
         DAVIS-MONTHAN IS DAVIS-MONTHAN AIR FORCE BASE
NAS    - NAVAL AIR STATION
         EL CENTRO NAS IS EL CENTRO NAVAL AIR STATION
N/A    - NOT AVAILABLE


USA.gov is the U.S. government's official web portal to all federal, state and local government web resources and services.